Home > Weather > Bathurst > Past weeks

Flag for Canada Past Weather in Bathurst, New Brunswick, Canada — Yesterday and Last 2 Weeks

Now
64 °F

Overcast.


Feels Like: 64 °F
Forecast: 66 / 83 °F
Wind: 6 mph from Southwest

Location: Bathurst Airport

Current Time: Aug 25, 2016 at 6:58:48 AM

Latest Report: Aug 25, 2016 at 6:00 AM


Visibility: 15 mi

Pressure: 29.92 "Hg

Humidity: 88%

Dew Point: 61 °F

Location of BathurstLocation

Past Weather in Bathurst — Graph

°F

Bathurst Temperature Yesterday

Maximum temperature yesterday: 81 °F (at 2:51 PM)
Minimum temperature yesterday: 55 °F (at 6:00 AM)
Average temperature yesterday: 70 °F

High & Low Weather Summary for the Past Weeks

 TemperatureHumidityPressure
High88 °F (Aug 10, 4:00 PM)100% (Aug 14, 6:00 AM)30.15 "Hg (Aug 14, 6:00 AM)
Low45 °F (Aug 13, 5:00 AM)31% (Aug 10, 4:00 PM)29.66 "Hg (Aug 22, 7:00 PM)
Average65 °F78%29.93 "Hg
* Reported Aug 10 5:00 AM — Aug 25 5:00 AM, Bathurst, Weather by CustomWeather, © 2016

Note: Actual official high and low records may vary slightly from our data, if they occured in-between our weather recording intervals... More about our weather records

Advertising

Bathurst Weather History for the Previous 24 Hours

Scroll right to see more
 ConditionsComfort  
Time TempWeatherWind HumidityBarometerVisibility
5:00 AM
Thu, Aug 25
64 °FOvercast.5 mph94%29.93 "Hg15 mi
4:00 AM66 °FOvercast.3 mph88%29.92 "Hg15 mi
3:00 AM66 °FOvercast.6 mph88%29.93 "Hg15 mi
2:00 AM66 °FOvercast.7 mph88%29.94 "Hg15 mi
1:00 AM66 °FClear.3 mph88%29.95 "Hg15 mi
12:00 AM68 °FClear.5 mph88%29.96 "Hg15 mi
11:00 PM
Wed, Aug 24
70 °FClear.7 mph83%29.96 "Hg15 mi
10:00 PM72 °FClear.6 mph78%29.98 "Hg15 mi
9:00 PM73 °FPassing clouds.5 mph74%29.98 "Hg15 mi
8:00 PM77 °FPartly sunny.8 mph65%29.96 "Hg15 mi
7:00 PM79 °FMore clouds than sun.6 mph61%29.95 "Hg15 mi
6:00 PM81 °FMore clouds than sun.10 mph54%29.97 "Hg15 mi
5:00 PM81 °FMore clouds than sun.10 mph54%29.99 "Hg15 mi
4:00 PM81 °FOvercast.12 mph45%30.00 "Hg15 mi
3:00 PM79 °FOvercast.7 mph48%30.03 "Hg15 mi
2:51 PM81 °FOvercast.13 mph45%30.02 "Hg15 mi
2:00 PM77 °FOvercast.10 mph51%30.03 "Hg15 mi
1:00 PM77 °FOvercast.10 mph47%30.04 "Hg15 mi
12:00 PM75 °FPartly sunny.10 mph54%30.06 "Hg15 mi
11:00 AM72 °FPartly sunny.6 mph61%30.07 "Hg15 mi
10:00 AM68 °FPassing clouds.12 mph73%30.06 "Hg15 mi
9:00 AM66 °FPassing clouds.12 mph78%30.06 "Hg15 mi
8:00 AM63 °FPassing clouds.9 mph83%30.06 "Hg15 mi
7:00 AM59 °FPassing clouds.6 mph88%30.06 "Hg15 mi
6:00 AM55 °FPassing clouds.3 mph94%30.02 "Hg15 mi
Weather by CustomWeather, © 2016

See weather overviewHow to use our weather pages